Date String (YYYY-MM-DD hh:mm:ss) UTC,Instrument flags,Ambient pressure (hPa),Sample flow (lpm),Bypass flow (lpm),Sample temperature (°C),Ambient temperature (°C),ASC tube jacket temperature (°C),LED temperature (°C),Box temperature (°C),Sample RH (%),Span deviation,Mass concentration (μg/m³),Mass concentration (μg/m³),Mass concentration (μg/m³)
DateTimeUTC,F1_M11,P_M11,Q1_M11,Q2_M11,T1_M11,T2_M11,T3_M11,T4_M11,T5_M11,U1_M11,ZSPAN_M11,X2_M11,X0_M11,X1_M11
2023-02-06 07:00:00,,0815.4,4.98,0.00,22.4,21.2,00.0,31.3,24.1,14.3,0000.0,0001.69,0002.76,0001.14
2023-02-06 07:01:00,,0815.5,5.04,0.00,22.4,21.1,00.0,31.3,24.0,14.3,0000.0,0001.63,0002.62,0001.13
2023-02-06 07:02:00,,0815.6,4.95,0.00,22.4,20.9,00.0,31.3,23.9,14.2,0000.0,0001.62,0002.60,0001.13
2023-02-06 07:03:00,,0815.5,5.03,0.00,22.3,20.8,00.0,31.3,23.8,14.2,0000.0,0001.58,0002.51,0001.14
2023-02-06 07:04:00,,0815.6,4.99,0.00,22.3,20.8,00.0,31.3,23.9,14.3,0000.0,0001.60,0002.58,0001.14
2023-02-06 07:05:00,,0815.4,4.98,0.00,22.3,20.7,00.0,31.3,23.7,14.2,0000.0,0001.65,0002.69,0001.14
2023-02-06 07:06:00,,0815.3,5.04,0.00,22.2,20.6,00.0,31.3,23.7,13.9,0000.0,0001.60,0002.54,0001.15
2023-02-06 07:07:00,,0815.3,4.95,0.00,22.2,20.6,00.0,31.2,23.7,13.4,0000.0,0001.61,0002.52,0001.19
2023-02-06 07:08:00,,0815.4,5.05,0.00,22.2,20.5,00.0,31.2,23.7,13.1,0000.0,0001.65,0002.50,0001.28
2023-02-06 07:09:00,,0815.3,4.97,0.00,22.2,20.5,00.0,31.2,23.7,13.3,0000.0,0001.76,0002.68,0001.36
2023-02-06 07:10:00,,0815.2,5.02,0.00,22.1,20.5,00.0,31.2,23.7,13.1,0000.0,0001.92,0003.00,0001.45
2023-02-06 07:11:00,,0815.3,5.03,0.00,22.1,20.4,00.0,31.2,23.7,12.8,0000.0,0002.09,0003.34,0001.56
2023-02-06 07:12:00,,0815.3,4.96,0.00,22.1,20.4,00.0,31.2,23.7,13.1,0000.0,0002.26,0003.74,0001.67
2023-02-06 07:13:00,,0815.4,5.06,0.00,22.1,21.0,00.0,31.1,23.9,13.0,0000.0,0002.46,0004.54,0001.78
2023-02-06 07:14:00,,0815.3,4.98,0.00,22.3,22.1,00.0,31.1,24.2,13.1,0000.0,0002.61,0004.87,0001.89
2023-02-06 07:15:00,,0815.3,5.02,0.00,22.4,23.0,00.0,31.1,24.5,13.0,0000.0,0002.74,0005.05,0001.99
2023-02-06 07:16:00,,0815.3,5.00,0.00,22.5,22.7,00.0,31.2,24.5,12.8,0000.0,0002.88,0005.32,0002.10
2023-02-06 07:17:00,,0815.3,4.96,0.00,22.5,22.2,00.0,31.2,24.4,12.9,0000.0,0003.08,0005.76,0002.23
2023-02-06 07:18:00,,0815.3,5.04,0.00,22.5,21.9,00.0,31.2,24.3,12.8,0000.0,0003.17,0006.04,0002.32
2023-02-06 07:19:00,,0815.3,4.96,0.00,22.5,21.6,00.0,31.3,24.3,13.0,0000.0,0003.19,0006.09,0002.37
2023-02-06 07:20:00,,0815.3,5.03,0.00,22.5,21.5,00.0,31.3,24.2,13.1,0000.0,0003.22,0006.17,0002.41
2023-02-06 07:21:00,,0815.3,5.01,0.00,22.4,21.3,00.0,31.3,24.1,13.0,0000.0,0003.24,0006.18,0002.44
2023-02-06 07:22:00,,0815.3,4.97,0.00,22.4,21.2,00.0,31.3,24.1,12.9,0000.0,0003.24,0006.25,0002.47
2023-02-06 07:23:00,,0815.4,5.03,0.00,22.4,21.1,00.0,31.3,24.1,13.0,0000.0,0003.24,0006.43,0002.47
2023-02-06 07:24:00,,0815.4,4.96,0.00,22.4,20.9,00.0,31.3,24.1,13.0,0000.0,0003.25,0006.52,0002.50
2023-02-06 07:25:00,,0815.3,5.04,0.00,22.4,20.9,00.0,31.3,24.1,12.9,0000.0,0003.28,0006.65,0002.55
2023-02-06 07:26:00,,0815.3,5.02,0.00,22.3,20.8,00.0,31.3,24.0,13.0,0000.0,0003.31,0006.84,0002.59
2023-02-06 07:27:00,,0815.3,4.95,0.00,22.3,20.8,00.0,31.3,23.9,13.1,0000.0,0003.36,0006.95,0002.61
2023-02-06 07:28:00,,0815.2,5.02,0.00,22.3,20.7,00.0,31.2,23.9,13.3,0000.0,0003.38,0007.37,0002.63
2023-02-06 07:29:00,,0815.2,5.03,0.00,22.3,20.7,00.0,31.2,23.9,13.5,0000.0,0003.42,0007.49,0002.66
2023-02-06 07:30:00,,0815.1,4.95,0.00,22.2,20.6,00.0,31.2,23.8,13.5,0000.0,0003.46,0007.49,0002.68
2023-02-06 07:31:00,,0815.2,5.04,0.00,22.2,20.6,00.0,31.2,23.8,13.4,0000.0,0003.50,0007.60,0002.71
2023-02-06 07:32:00,,0815.2,5.00,0.00,22.2,20.5,00.0,31.2,23.8,13.2,0000.0,0003.53,0007.66,0002.74
2023-02-06 07:33:00,,0815.1,4.97,0.00,22.2,20.5,00.0,31.2,23.8,13.5,0000.0,0003.53,0007.69,0002.74
2023-02-06 07:34:00,,0815.2,5.03,0.00,22.2,20.5,00.0,31.2,23.7,13.5,0000.0,0003.56,0007.77,0002.73
2023-02-06 07:35:00,,0815.2,4.96,0.00,22.1,20.5,00.0,31.1,23.7,13.6,0000.0,0003.57,0007.48,0002.71
2023-02-06 07:36:00,,0815.5,5.03,0.00,22.2,21.1,00.0,31.1,23.9,13.6,0000.0,0003.56,0007.96,0002.69
2023-02-06 07:37:00,,0815.2,4.98,0.00,22.3,22.2,00.0,31.1,24.3,13.6,0000.0,0003.55,0007.99,0002.68
2023-02-06 07:38:00,,0815.1,5.04,0.00,22.4,23.0,00.0,31.1,24.5,13.4,0000.0,0003.54,0008.03,0002.67
2023-02-06 07:39:00,,0815.2,4.98,0.00,22.5,22.7,00.0,31.2,24.5,13.4,0000.0,0003.52,0008.44,0002.64
2023-02-06 07:40:00,,0815.1,4.97,0.00,22.5,22.3,00.0,31.2,24.4,13.5,0000.0,0003.52,0008.33,0002.61
2023-02-06 07:41:00,,0815.0,5.03,0.00,22.5,21.9,00.0,31.3,24.3,13.5,0000.0,0003.50,0008.27,0002.58
2023-02-06 07:42:00,,0815.1,4.96,0.00,22.5,21.6,00.0,31.3,24.3,13.5,0000.0,0003.47,0008.74,0002.55
2023-02-06 07:43:00,,0815.0,5.02,0.00,22.5,21.4,00.0,31.3,24.2,13.4,0000.0,0003.47,0009.01,0002.53
2023-02-06 07:44:00,,0814.9,5.01,0.00,22.5,21.3,00.0,31.3,24.2,13.4,0000.0,0003.46,0009.05,0002.52
2023-02-06 07:45:00,,0814.9,4.98,0.00,22.5,21.2,00.0,31.3,24.2,13.4,0000.0,0003.45,0009.14,0002.52
2023-02-06 07:46:00,,0814.9,5.03,0.00,22.4,21.1,00.0,31.3,24.1,13.3,0000.0,0003.42,0009.03,0002.51
2023-02-06 07:47:00,,0814.9,4.97,0.00,22.4,21.0,00.0,31.3,24.1,13.3,0000.0,0003.38,0008.59,0002.50
2023-02-06 07:48:00,,0814.8,4.99,0.00,22.4,21.0,00.0,31.3,24.0,13.4,0000.0,0003.38,0009.11,0002.50
2023-02-06 07:49:00,,0814.8,5.02,0.00,22.4,20.9,00.0,31.3,24.0,13.3,0000.0,0003.41,0009.19,0002.50
2023-02-06 07:50:00,,0814.8,5.00,0.00,22.3,20.8,00.0,31.3,24.0,13.3,0000.0,0003.43,0008.69,0002.53
2023-02-06 07:51:00,,0814.8,4.96,0.00,22.3,20.8,00.0,31.3,23.9,13.2,0000.0,0003.43,0008.59,0002.55
2023-02-06 07:52:00,,0814.8,5.03,0.00,22.3,20.7,00.0,31.3,24.0,13.2,0000.0,0003.46,0008.71,0002.57
2023-02-06 07:53:00,,0814.9,5.03,0.00,22.3,20.7,00.0,31.2,23.8,13.2,0000.0,0003.50,0008.28,0002.62
2023-02-06 07:54:00,,0815.0,4.94,0.00,22.2,20.6,00.0,31.2,23.8,13.3,0000.0,0003.53,0008.11,0002.65
2023-02-06 07:55:00,,0814.8,5.04,0.00,22.2,20.6,00.0,31.2,23.8,13.2,0000.0,0003.57,0008.14,0002.67
2023-02-06 07:56:00,,0814.8,5.02,0.00,22.2,20.5,00.0,31.2,23.7,13.2,0000.0,0003.64,0008.03,0002.70
2023-02-06 07:57:00,,0814.8,4.97,0.00,22.2,20.5,00.0,31.2,23.7,13.2,0000.0,0003.70,0008.20,0002.72
2023-02-06 07:58:00,,0814.8,5.03,0.00,22.2,21.3,00.0,31.1,24.0,13.5,0000.0,0003.74,0008.37,0002.75
2023-02-06 07:59:00,,0814.8,4.96,0.00,22.3,22.3,00.0,31.1,24.3,13.4,0000.0,0003.74,0007.74,0002.76
